EN

Hourly Weather Barnstable

Today, 28 January, Thursday

Time Temperature Precipitation Wind Pressure Humidity
00:00 -2°C° 0 mm 3 mps 760 mmHg 95%
01:00 -2°C° 0 mm 3 mps 760 mmHg 96%
02:00 -2°C° 0 mm 3 mps 760 mmHg 96%
03:00 -1°C° 0 mm 3 mps 760 mmHg 95%
04:00 -1°C° 0 mm 3 mps 759 mmHg 95%
05:00 -2°C° 0 mm 4 mps 759 mmHg 95%
06:00 -3°C° 0 mm 4 mps 759 mmHg 95%
07:00 -3°C° 0 mm 4 mps 759 mmHg 95%
08:00 -2°C° 0 mm 4 mps 759 mmHg 92%
09:00 -2°C° 0 mm 4 mps 759 mmHg 89%
10:00 -1°C° 0 mm 4 mps 759 mmHg 86%
11:00 -1°C° 0 mm 5 mps 758 mmHg 87%
12:00 -1°C° 0 mm 5 mps 758 mmHg 89%
13:00 -1°C° 0 mm 5 mps 758 mmHg 90%
14:00 -3°C° 0.2 mm 6 mps 757 mmHg 90%
15:00 -3°C° 0.2 mm 7 mps 757 mmHg 89%
16:00 -4°C° 0.2 mm 9 mps 757 mmHg 89%
17:00 -5°C° 0.1 mm 9 mps 757 mmHg 83%
18:00 -6°C° 0.1 mm 9 mps 757 mmHg 76%
19:00 -7°C° 0.1 mm 10 mps 758 mmHg 70%
20:00 -9°C° 0 mm 10 mps 758 mmHg 67%
21:00 -11°C° 0 mm 11 mps 758 mmHg 64%
22:00 -12°C° 0 mm 11 mps 758 mmHg 61%
23:00 -13°C° 0 mm 11 mps 757 mmHg 60%

Tomorrow, 29 January, Friday

Time Temperature Precipitation Wind Pressure Humidity
00:00 -15°C° 0 mm 12 mps 757 mmHg 60%
01:00 -16°C° 0 mm 12 mps 757 mmHg 59%
02:00 -16°C° 0 mm 12 mps 757 mmHg 58%
03:00 -17°C° 0 mm 12 mps 756 mmHg 58%
04:00 -17°C° 0 mm 11 mps 756 mmHg 57%
05:00 -18°C° 0 mm 11 mps 756 mmHg 57%
06:00 -18°C° 0 mm 11 mps 756 mmHg 57%
07:00 -19°C° 0 mm 11 mps 756 mmHg 57%
08:00 -19°C° 0 mm 11 mps 756 mmHg 56%
09:00 -18°C° 0 mm 11 mps 755 mmHg 56%
10:00 -18°C° 0 mm 11 mps 755 mmHg 55%
11:00 -17°C° 0.1 mm 11 mps 755 mmHg 55%
12:00 -16°C° 0.1 mm 11 mps 755 mmHg 55%
13:00 -14°C° 0.1 mm 11 mps 754 mmHg 55%
14:00 -14°C° 0.2 mm 11 mps 755 mmHg 65%
15:00 -15°C° 0.2 mm 12 mps 755 mmHg 74%
16:00 -15°C° 0.2 mm 12 mps 756 mmHg 83%
17:00 -15°C° 0.1 mm 12 mps 757 mmHg 76%
18:00 -13°C° 0.1 mm 12 mps 758 mmHg 69%
19:00 -12°C° 0.1 mm 11 mps 760 mmHg 62%
20:00 -13°C° 0 mm 11 mps 760 mmHg 63%
21:00 -14°C° 0 mm 10 mps 761 mmHg 63%
22:00 -14°C° 0 mm 9 mps 761 mmHg 64%
23:00 -14°C° 0 mm 9 mps 762 mmHg 64%

Day after tomorrow, 30 January, Saturday

Time Temperature Precipitation Wind Pressure Humidity
00:00 -15°C° 0 mm 8 mps 762 mmHg 63%
01:00 -15°C° 0 mm 8 mps 762 mmHg 62%
02:00 -14°C° 0 mm 7 mps 762 mmHg 63%
03:00 -15°C° 0 mm 7 mps 762 mmHg 63%
04:00 -15°C° 0 mm 7 mps 762 mmHg 63%
05:00 -15°C° 0 mm 7 mps 763 mmHg 63%
06:00 -15°C° 0 mm 6 mps 763 mmHg 63%
07:00 -15°C° 0 mm 6 mps 764 mmHg 62%
08:00 -15°C° 0 mm 6 mps 764 mmHg 60%
09:00 -14°C° 0 mm 6 mps 764 mmHg 57%
10:00 -12°C° 0 mm 6 mps 764 mmHg 54%
11:00 -12°C° 0 mm 5 mps 764 mmHg 52%
12:00 -11°C° 0 mm 5 mps 764 mmHg 50%
13:00 -10°C° 0 mm 5 mps 764 mmHg 48%
14:00 -10°C° 0 mm 5 mps 764 mmHg 47%
15:00 -10°C° 0 mm 5 mps 764 mmHg 47%
16:00 -9°C° 0 mm 4 mps 764 mmHg 46%
17:00 -9°C° 0 mm 4 mps 765 mmHg 48%
18:00 -9°C° 0 mm 4 mps 765 mmHg 49%
19:00 -9°C° 0 mm 4 mps 765 mmHg 51%
20:00 -10°C° 0 mm 4 mps 765 mmHg 53%
21:00 -10°C° 0 mm 4 mps 765 mmHg 56%
22:00 -10°C° 0 mm 4 mps 765 mmHg 58%
23:00 -10°C° 0 mm 4 mps 765 mmHg 60%

31 January, Sunday

Time Temperature Precipitation Wind Pressure Humidity
00:00 -10°C° 0 mm 3 mps 766 mmHg 61%
01:00 -10°C° 0 mm 3 mps 766 mmHg 62%
02:00 -10°C° 0 mm 3 mps 766 mmHg 62%
03:00 -10°C° 0 mm 3 mps 766 mmHg 62%
04:00 -12°C° 0 mm 3 mps 766 mmHg 62%
05:00 -9°C° 0 mm 2 mps 766 mmHg 62%
06:00 -9°C° 0 mm 2 mps 766 mmHg 62%
07:00 -8°C° 0 mm 1 mps 766 mmHg 62%
08:00 -7°C° 0 mm 1 mps 766 mmHg 60%
09:00 -6°C° 0 mm 1 mps 766 mmHg 58%
10:00 -5°C° 0 mm 0 mps 766 mmHg 56%
11:00 -4°C° 0 mm 0 mps 766 mmHg 55%
12:00 -3°C° 0 mm 0 mps 766 mmHg 54%
13:00 -2°C° 0 mm 0 mps 766 mmHg 52%
14:00 -2°C° 0 mm 0 mps 765 mmHg 55%
15:00 -1°C° 0 mm 1 mps 765 mmHg 57%
16:00 -1°C° 0 mm 1 mps 765 mmHg 60%
17:00 -3°C° 0 mm 2 mps 765 mmHg 64%
18:00 -4°C° 0 mm 3 mps 765 mmHg 68%
19:00 -4°C° 0 mm 3 mps 765 mmHg 71%
20:00 -4°C° 0 mm 4 mps 765 mmHg 72%
21:00 -4°C° 0 mm 4 mps 765 mmHg 73%
22:00 -4°C° 0 mm 4 mps 764 mmHg 74%
23:00 -4°C° 0 mm 5 mps 764 mmHg 73%

1 February, Monday

Time Temperature Precipitation Wind Pressure Humidity
00:00 -4°C° 0 mm 6 mps 763 mmHg 73%
01:00 -4°C° 0 mm 7 mps 763 mmHg 73%
02:00 -3°C° 0 mm 7 mps 762 mmHg 74%
03:00 -4°C° 0 mm 8 mps 761 mmHg 74%
04:00 -4°C° 0 mm 9 mps 760 mmHg 75%
05:00 -4°C° 0.1 mm 10 mps 760 mmHg 77%
06:00 -3°C° 0.1 mm 10 mps 759 mmHg 80%
07:00 -3°C° 0.1 mm 11 mps 759 mmHg 82%
08:00 -3°C° 0.3 mm 11 mps 758 mmHg 83%
09:00 -3°C° 0.3 mm 12 mps 758 mmHg 84%
10:00 -3°C° 0.3 mm 12 mps 757 mmHg 85%
11:00 -3°C° 1.3 mm 12 mps 757 mmHg 88%
12:00 -3°C° 1.3 mm 12 mps 756 mmHg 92%
13:00 -3°C° 1.3 mm 12 mps 755 mmHg 96%
14:00 -4°C° 2.3 mm 13 mps 755 mmHg 96%
15:00 -4°C° 2.3 mm 13 mps 754 mmHg 96%
16:00 -4°C° 2.3 mm 14 mps 753 mmHg 96%
17:00 -4°C° 1.7 mm 14 mps 753 mmHg 96%
18:00 -4°C° 1.7 mm 14 mps 753 mmHg 96%
19:00 -3°C° 1.7 mm 15 mps 752 mmHg 96%
20:00 -3°C° 2.2 mm 15 mps 752 mmHg 96%
21:00 -3°C° 2.2 mm 15 mps 752 mmHg 96%
22:00 -3°C° 2.2 mm 15 mps 751 mmHg 96%
23:00 -3°C° 1.4 mm 15 mps 751 mmHg 96%

2 February, Tuesday

Time Temperature Precipitation Wind Pressure Humidity
00:00 -3°C° 1.4 mm 15 mps 750 mmHg 96%
01:00 -3°C° 1.4 mm 15 mps 750 mmHg 96%
02:00 -3°C° 1 mm 15 mps 750 mmHg 96%
03:00 -4°C° 1 mm 15 mps 749 mmHg 96%
04:00 -4°C° 1 mm 15 mps 749 mmHg 96%
05:00 -4°C° 0.3 mm 15 mps 749 mmHg 96%
06:00 -4°C° 0.3 mm 14 mps 750 mmHg 96%
07:00 -4°C° 0.3 mm 14 mps 750 mmHg 96%
08:00 -4°C° 0.6 mm 14 mps 750 mmHg 96%
09:00 -4°C° 0.6 mm 14 mps 750 mmHg 96%
10:00 -4°C° 0.6 mm 13 mps 750 mmHg 96%
11:00 -4°C° 0.4 mm 13 mps 750 mmHg 93%
12:00 -5°C° 0.4 mm 13 mps 750 mmHg 91%
13:00 -5°C° 0.4 mm 13 mps 750 mmHg 89%
14:00 -5°C° 0.1 mm 13 mps 750 mmHg 88%
15:00 -6°C° 0.1 mm 12 mps 751 mmHg 87%
16:00 -6°C° 0.1 mm 12 mps 751 mmHg 86%
17:00 -6°C° 0.1 mm 11 mps 751 mmHg 87%
18:00 -6°C° 0.1 mm 11 mps 752 mmHg 88%
19:00 -6°C° 0.1 mm 11 mps 752 mmHg 89%
20:00 -5°C° 0.1 mm 10 mps 752 mmHg 89%
21:00 -5°C° 0.1 mm 10 mps 752 mmHg 89%
22:00 -6°C° 0.1 mm 9 mps 752 mmHg 89%
23:00 -6°C° 0.1 mm 9 mps 752 mmHg 88%
Show more

We Need Your Consent

Meteoprog and our Service Providers may store and access personal data such as cookies, device identifiers or other similar technologies on your device and process such data to personalise content and ads, as well as provide social media features and to analyse the traffic.

  • Store and/or access information on your device

    Cookies, device identifiers or other information can be stored or accessed on your device for the purposes indicated above.

  • Personalised ads and content, ad and content measurement, audience insights, and products development

    Ads and content can be personalised based on a profile. More data can be added to better personalise ads and content. Ad and content performance can be measured. Insights about the audience who saw the ads and content can be derived. Such data can be used to develop or improve user’s experience, systems and software.

By clicking ‘I Agree’ you will allow the use of indicated cookies, device identifiers, web beacons or other similar technologies. Your settings can be changed in the browser on your device.

For certain purposes, legitimate interests may be relied on, rather than consent. You can read more about this in our Privacy and Cookie Policy.